| time (UTC) | temp C | wind direction | speed KPH | gust KPH | rain 1hr cm | rain 24hr cm | rain mn cm | humidity % | barometer mb |
| 20260510204704 | 31 | 87 | 11.3 | 25.7 | 0.00 | 0.00 | 0.00 | 13 | 1017.1 |
| 20260510204203 | 32 | 147 | 11.3 | 25.7 | 0.00 | 0.00 | 0.00 | 13 | 1017.0 |
| 20260510203703 | 32 | 86 | 9.7 | 19.3 | 0.00 | 0.00 | 0.00 | 13 | 1017.4 |
| 20260510203202 | 32 | 166 | 9.7 | 16.1 | 0.00 | 0.00 | 0.00 | 13 | 1017.2 |
| 20260510202705 | 32 | 227 | 11.3 | 17.7 | 0.00 | 0.00 | 0.00 | 13 | 1017.2 |
| 20260510202423 | 32 | 121 | 11.3 | 19.3 | 0.00 | 0.00 | 0.00 | 14 | 1017.1 |
| 20260510201703 | 32 | 148 | 9.7 | 19.3 | 0.00 | 0.00 | 0.00 | 13 | 1017.2 |
| 20260510201202 | 31 | 142 | 4.8 | 19.3 | 0.00 | 0.00 | 0.00 | 14 | 1017.2 |
| 20260510200703 | 31 | 46 | 9.7 | 19.3 | 0.00 | 0.00 | 0.00 | 13 | 1017.4 |
| 20260510200202 | 31 | 155 | 12.9 | 22.5 | 0.00 | 0.00 | 0.00 | 13 | 1017.6 |
| 20260510195923 | 31 | 164 | 14.5 | 24.1 | 0.00 | 0.00 | 0.00 | 13 | 1017.4 |
| 20260510195203 | 31 | 118 | 14.5 | 24.1 | 0.00 | 0.00 | 0.00 | 14 | 1017.6 |
| 20260510194702 | 31 | 86 | 12.9 | 24.1 | 0.00 | 0.00 | 0.00 | 15 | 1017.4 |
| 20260510194202 | 31 | 108 | 12.9 | 25.7 | 0.00 | 0.00 | 0.00 | 15 | 1017.6 |
| 20260510193931 | 31 | 128 | 14.5 | 25.7 | 0.00 | 0.00 | 0.00 | 15 | 1017.6 |
| 20260510193203 | 31 | 144 | 12.9 | 22.5 | 0.00 | 0.00 | 0.00 | 14 | 1017.6 |
| 20260510192704 | 31 | 154 | 12.9 | 19.3 | 0.00 | 0.00 | 0.00 | 15 | 1017.7 |
| 20260510192205 | 31 | 136 | 12.9 | 24.1 | 0.00 | 0.00 | 0.00 | 14 | 1017.9 |
| 20260510191702 | 31 | 131 | 8.0 | 24.1 | 0.00 | 0.00 | 0.00 | 14 | 1017.8 |
| 20260510191202 | 31 | 161 | 6.4 | 14.5 | 0.00 | 0.00 | 0.00 | 12 | 1017.8 |
| 20260510190702 | 31 | 271 | 8.0 | 16.1 | 0.00 | 0.00 | 0.00 | 12 | 1017.7 |
| 20260510190202 | 31 | 235 | 9.7 | 16.1 | 0.00 | 0.00 | 0.00 | 12 | 1017.9 |
| 20260510185702 | 30 | 163 | 9.7 | 20.9 | 0.00 | 0.00 | 0.00 | 12 | 1018.0 |
| 20260510185203 | 31 | 119 | 11.3 | 20.9 | 0.00 | 0.00 | 0.00 | 11 | 1018.0 |
| 20260510184703 | 31 | 144 | 8.0 | 20.9 | 0.00 | 0.00 | 0.00 | 11 | 1018.1 |
| 20260510184203 | 31 | 133 | 3.2 | 20.9 | 0.00 | 0.00 | 0.00 | 12 | 1018.2 |
| 20260510183703 | 30 | 234 | 4.8 | 8.0 | 0.00 | 0.00 | 0.00 | 12 | 1018.2 |
| 20260510183203 | 30 | 94 | 6.4 | 12.9 | 0.00 | 0.00 | 0.00 | 12 | 1018.3 |
| 20260510182703 | 30 | 134 | 6.4 | 14.5 | 0.00 | 0.00 | 0.00 | 12 | 1018.3 |
| 20260510182202 | 30 | 128 | 6.4 | 16.1 | 0.00 | 0.00 | 0.00 | 13 | 1018.3 |
| 20260510181703 | 30 | 67 | 6.4 | 16.1 | 0.00 | 0.00 | 0.00 | 12 | 1018.3 |
| 20260510181203 | 29 | 101 | 8.0 | 17.7 | 0.00 | 0.00 | 0.00 | 13 | 1018.3 |
| 20260510180702 | 29 | 31 | 8.0 | 19.3 | 0.00 | 0.00 | 0.00 | 13 | 1018.6 |
| 20260510180202 | 29 | 46 | 9.7 | 22.5 | 0.00 | 0.00 | 0.00 | 13 | 1018.6 |
| 20260510175703 | 29 | 71 | 12.9 | 22.5 | 0.00 | 0.00 | 0.00 | 13 | 1018.6 |
| 20260510175202 | 29 | 40 | 11.3 | 20.9 | 0.00 | 0.00 | 0.00 | 14 | 1018.6 |
| 20260510174703 | 28 | 64 | 11.3 | 22.5 | 0.00 | 0.00 | 0.00 | 14 | 1018.6 |
| 20260510174157 | 29 | 26 | 12.9 | 22.5 | 0.00 | 0.00 | 0.00 | 14 | 1018.7 |
| 20260510173657 | 29 | 35 | 9.7 | 19.3 | 0.00 | 0.00 | 0.00 | 14 | 1018.7 |
| 20260510173158 | 29 | 28 | 8.0 | 17.7 | 0.00 | 0.00 | 0.00 | 15 | 1018.6 |
| 20260510172921 | 28 | 63 | 9.7 | 20.9 | 0.00 | 0.00 | 0.00 | 15 | 1018.7 |
| 20260510172158 | 28 | 55 | 12.9 | 22.5 | 0.00 | 0.00 | 0.00 | 15 | 1018.6 |
| 20260510171923 | 28 | 44 | 12.9 | 22.5 | 0.00 | 0.00 | 0.00 | 15 | 1018.7 |
| 20260510171422 | 28 | 17 | 12.9 | 25.7 | 0.00 | 0.00 | 0.00 | 14 | 1018.6 |
| 20260510170655 | 28 | 61 | 14.5 | 25.7 | 0.00 | 0.00 | 0.00 | 14 | 1018.7 |
| 20260510170155 | 28 | 26 | 12.9 | 25.7 | 0.00 | 0.00 | 0.00 | 15 | 1018.6 |
| 20260510165655 | 28 | 56 | 11.3 | 20.9 | 0.00 | 0.00 | 0.00 | 15 | 1018.6 |
| 20260510165156 | 28 | 22 | 12.9 | 24.1 | 0.00 | 0.00 | 0.00 | 15 | 1018.4 |
| 20260510164655 | 28 | 41 | 11.3 | 24.1 | 0.00 | 0.00 | 0.00 | 15 | 1018.4 |
| 20260510164154 | 28 | 47 | 12.9 | 25.7 | 0.00 | 0.00 | 0.00 | 15 | 1018.3 |
| 20260510163917 | 28 | 11 | 11.3 | 25.7 | 0.00 | 0.00 | 0.00 | 15 | 1018.3 |
| 20260510163153 | 28 | 336 | 9.7 | 20.9 | 0.00 | 0.00 | 0.00 | 15 | 1018.3 |
| 20260510162654 | 28 | 24 | 9.7 | 19.3 | 0.00 | 0.00 | 0.00 | 16 | 1018.2 |
| 20260510162154 | 28 | 53 | 12.9 | 24.1 | 0.00 | 0.00 | 0.00 | 16 | 1018.1 |
| 20260510161654 | 28 | 66 | 14.5 | 25.7 | 0.00 | 0.00 | 0.00 | 16 | 1018.0 |
| 20260510161154 | 28 | 58 | 12.9 | 25.7 | 0.00 | 0.00 | 0.00 | 15 | 1018.0 |
| 20260510160653 | 28 | 13 | 9.7 | 22.5 | 0.00 | 0.00 | 0.00 | 16 | 1018.0 |
| 20260510160154 | 28 | 23 | 9.7 | 19.3 | 0.00 | 0.00 | 0.00 | 16 | 1017.9 |
| 20260510155653 | 27 | 5 | 12.9 | 24.1 | 0.00 | 0.00 | 0.00 | 16 | 1018.0 |
| 20260510155154 | 27 | 37 | 14.5 | 24.1 | 0.00 | 0.00 | 0.00 | 16 | 1018.0 |
| 20260510154654 | 27 | 24 | 16.1 | 27.4 | 0.00 | 0.00 | 0.00 | 16 | 1017.9 |
| 20260510154153 | 27 | 5 | 17.7 | 29.0 | 0.00 | 0.00 | 0.00 | 16 | 1017.9 |
| 20260510153653 | 27 | 53 | 16.1 | 29.0 | 0.00 | 0.00 | 0.00 | 16 | 1017.8 |
| 20260510153154 | 27 | 15 | 16.1 | 27.4 | 0.00 | 0.00 | 0.00 | 16 | 1017.8 |
| 20260510152654 | 26 | 44 | 17.7 | 29.0 | 0.00 | 0.00 | 0.00 | 16 | 1017.9 |
| 20260510152154 | 26 | 42 | 17.7 | 29.0 | 0.00 | 0.00 | 0.00 | 16 | 1017.8 |
| 20260510151910 | 26 | 26 | 17.7 | 30.6 | 0.00 | 0.00 | 0.00 | 16 | 1017.8 |
| 20260510151149 | 26 | 47 | 17.7 | 30.6 | 0.00 | 0.00 | 0.00 | 16 | 1017.7 |
| 20260510150649 | 26 | 31 | 16.1 | 29.0 | 0.00 | 0.00 | 0.00 | 16 | 1017.7 |
| 20260510150150 | 26 | 18 | 16.1 | 27.4 | 0.00 | 0.00 | 0.00 | 16 | 1017.7 |
| 20260510145650 | 26 | 5 | 14.5 | 27.4 | 0.00 | 0.00 | 0.00 | 16 | 1017.6 |
| 20260510145638 | 26 | 25 | 14.5 | 25.7 | 0.00 | 0.00 | 0.00 | 15 | 1017.6 |
| 20260510144650 | 26 | 67 | 19.3 | 33.8 | 0.00 | 0.00 | 0.00 | 16 | 1017.4 |
| 20260510144150 | 26 | 39 | 19.3 | 33.8 | 0.00 | 0.00 | 0.00 | 15 | 1017.4 |
| 20260510143910 | 26 | 33 | 17.7 | 32.2 | 0.00 | 0.00 | 0.00 | 15 | 1017.2 |
| 20260510143148 | 25 | 36 | 14.5 | 27.4 | 0.00 | 0.00 | 0.00 | 16 | 1017.2 |
| 20260510142916 | 25 | 27 | 12.9 | 22.5 | 0.00 | 0.00 | 0.00 | 16 | 1017.2 |
| 20260510142148 | 25 | 43 | 12.9 | 27.4 | 0.00 | 0.00 | 0.00 | 16 | 1017.0 |
| 20260510141647 | 25 | 19 | 14.5 | 27.4 | 0.00 | 0.00 | 0.00 | 16 | 1017.1 |
| 20260510141408 | 25 | 13 | 11.3 | 24.1 | 0.00 | 0.00 | 0.00 | 16 | 1016.9 |
| 20260510140647 | 25 | 345 | 8.0 | 20.9 | 0.00 | 0.00 | 0.00 | 16 | 1016.8 |
| 20260510140140 | 25 | 341 | 8.0 | 17.7 | 0.00 | 0.00 | 0.00 | 16 | 1016.8 |
| 20260510135634 | 25 | 18 | 9.7 | 22.5 | 0.00 | 0.00 | 0.00 | 16 | 1016.8 |
| 20260510135133 | 24 | 5 | 9.7 | 22.5 | 0.00 | 0.00 | 0.00 | 16 | 1016.7 |
| 20260510134633 | 24 | 9 | 8.0 | 16.1 | 0.00 | 0.00 | 0.00 | 16 | 1016.5 |
| 20260510134131 | 24 | 19 | 8.0 | 16.1 | 0.00 | 0.00 | 0.00 | 17 | 1016.4 |
| 20260510133632 | 24 | 32 | 8.0 | 14.5 | 0.00 | 0.00 | 0.00 | 17 | 1016.4 |
| 20260510133131 | 24 | 33 | 6.4 | 14.5 | 0.00 | 0.00 | 0.00 | 17 | 1016.3 |
| 20260510132632 | 24 | 10 | 4.8 | 9.7 | 0.00 | 0.00 | 0.00 | 17 | 1016.2 |
| 20260510132354 | 24 | 19 | 4.8 | 8.0 | 0.00 | 0.00 | 0.00 | 17 | 1016.2 |
| 20260510131630 | 24 | 0 | 6.4 | 11.3 | 0.00 | 0.00 | 0.00 | 17 | 1016.1 |
| 20260510131129 | 24 | 11 | 4.8 | 12.9 | 0.00 | 0.00 | 0.00 | 17 | 1016.1 |
| 20260510130630 | 24 | 355 | 4.8 | 12.9 | 0.00 | 0.00 | 0.00 | 17 | 1016.0 |
| 20260510130130 | 24 | 355 | 6.4 | 9.7 | 0.00 | 0.00 | 0.00 | 17 | 1016.0 |
| 20260510125855 | 23 | 16 | 6.4 | 12.9 | 0.00 | 0.00 | 0.00 | 17 | 1015.8 |
| 20260510125129 | 23 | 10 | 6.4 | 12.9 | 0.00 | 0.00 | 0.00 | 17 | 1015.8 |
| 20260510124629 | 24 | 27 | 8.0 | 14.5 | 0.00 | 0.00 | 0.00 | 16 | 1015.5 |
| 20260510124129 | 24 | 47 | 6.4 | 14.5 | 0.00 | 0.00 | 0.00 | 16 | 1015.3 |
| 20260510123629 | 24 | 29 | 4.8 | 11.3 | 0.00 | 0.00 | 0.00 | 16 | 1015.2 |
| 20260510123129 | 24 | 15 | 4.8 | 8.0 | 0.00 | 0.00 | 0.00 | 16 | 1015.0 |
| 20260510122627 | 24 | 348 | 6.4 | 12.9 | 0.00 | 0.00 | 0.00 | 16 | 1014.7 |
| 20260510122121 | 25 | 9 | 6.4 | 14.5 | 0.00 | 0.00 | 0.00 | 15 | 1014.7 |
| 20260510121614 | 25 | 9 | 6.4 | 14.5 | 0.00 | 0.00 | 0.00 | 15 | 1014.7 |
| 20260510121109 | 25 | 14 | 6.4 | 14.5 | 0.00 | 0.00 | 0.00 | 15 | 1014.6 |
| 20260510120603 | 25 | 0 | 8.0 | 16.1 | 0.00 | 0.00 | 0.00 | 15 | 1014.5 |
| 20260510120104 | 25 | 9 | 8.0 | 20.9 | 0.00 | 0.00 | 0.00 | 15 | 1014.4 |
| 20260510115603 | 25 | 325 | 8.0 | 20.9 | 0.00 | 0.00 | 0.00 | 15 | 1014.3 |
| 20260510115103 | 26 | 24 | 9.7 | 19.3 | 0.00 | 0.00 | 0.00 | 14 | 1014.2 |
| 20260510114605 | 26 | 5 | 11.3 | 20.9 | 0.00 | 0.00 | 0.00 | 14 | 1014.2 |
| 20260510114104 | 26 | 336 | 14.5 | 29.0 | 0.00 | 0.00 | 0.00 | 14 | 1014.2 |
| 20260510113603 | 26 | 308 | 12.9 | 29.0 | 0.00 | 0.00 | 0.00 | 14 | 1014.1 |
| 20260510113103 | 26 | 323 | 12.9 | 32.2 | 0.00 | 0.00 | 0.00 | 13 | 1014.0 |
| 20260510112602 | 26 | 333 | 16.1 | 32.2 | 0.00 | 0.00 | 0.00 | 13 | 1014.0 |
| 20260510112103 | 26 | 345 | 16.1 | 32.2 | 0.00 | 0.00 | 0.00 | 13 | 1014.0 |
| 20260510111603 | 26 | 345 | 16.1 | 27.4 | 0.00 | 0.00 | 0.00 | 13 | 1013.8 |
| 20260510111103 | 27 | 317 | 16.1 | 27.4 | 0.00 | 0.00 | 0.00 | 13 | 1013.6 |
| 20260510110603 | 27 | 355 | 16.1 | 25.7 | 0.00 | 0.00 | 0.00 | 13 | 1013.7 |
| 20260510110324 | 27 | 298 | 14.5 | 27.4 | 0.00 | 0.00 | 0.00 | 12 | 1013.5 |
| 20260510105602 | 27 | 327 | 14.5 | 27.4 | 0.00 | 0.00 | 0.00 | 12 | 1013.6 |
| 20260510105327 | 27 | 298 | 16.1 | 32.2 | 0.00 | 0.00 | 0.00 | 12 | 1013.6 |
| 20260510104606 | 27 | 331 | 16.1 | 32.2 | 0.00 | 0.00 | 0.00 | 12 | 1013.6 |
| 20260510104103 | 27 | 316 | 16.1 | 27.4 | 0.00 | 0.00 | 0.00 | 12 | 1013.5 |
| 20260510103559 | 27 | 329 | 16.1 | 27.4 | 0.00 | 0.00 | 0.00 | 12 | 1013.4 |
| 20260510103057 | 27 | 351 | 11.3 | 25.7 | 0.00 | 0.00 | 0.00 | 12 | 1013.5 |
| 20260510102819 | 27 | 330 | 9.7 | 22.5 | 0.00 | 0.00 | 0.00 | 13 | 1013.5 |
| 20260510102054 | 27 | 325 | 8.0 | 17.7 | 0.00 | 0.00 | 0.00 | 13 | 1013.4 |
| 20260510101554 | 27 | 330 | 11.3 | 24.1 | 0.00 | 0.00 | 0.00 | 12 | 1013.3 |
| 20260510101054 | 27 | 314 | 12.9 | 24.1 | 0.00 | 0.00 | 0.00 | 12 | 1013.3 |
| 20260510100815 | 27 | 314 | 14.5 | 22.5 | 0.00 | 0.00 | 0.00 | 12 | 1013.4 |
| 20260510100051 | 27 | 311 | 14.5 | 27.4 | 0.00 | 0.00 | 0.00 | 12 | 1013.4 |
| 20260510095550 | 27 | 319 | 12.9 | 27.4 | 0.00 | 0.00 | 0.00 | 12 | 1013.3 |
| 20260510095050 | 27 | 288 | 11.3 | 22.5 | 0.00 | 0.00 | 0.00 | 12 | 1013.3 |
| 20260510094550 | 27 | 302 | 12.9 | 25.7 | 0.00 | 0.00 | 0.00 | 12 | 1013.2 |
| 20260510094050 | 27 | 309 | 12.9 | 25.7 | 0.00 | 0.00 | 0.00 | 12 | 1013.2 |
| 20260510093548 | 27 | 323 | 9.7 | 24.1 | 0.00 | 0.00 | 0.00 | 12 | 1013.1 |
| 20260510093306 | 27 | 320 | 11.3 | 20.9 | 0.00 | 0.00 | 0.00 | 11 | 1012.9 |
| 20260510092816 | 27 | 327 | 12.9 | 32.2 | 0.00 | 0.00 | 0.00 | 11 | 1012.9 |
| 20260510092046 | 27 | 327 | 16.1 | 32.2 | 0.00 | 0.00 | 0.00 | 11 | 1013.1 |
| 20260510091545 | 27 | 308 | 17.7 | 32.2 | 0.00 | 0.00 | 0.00 | 11 | 1012.8 |
| 20260510091045 | 27 | 277 | 19.3 | 33.8 | 0.00 | 0.00 | 0.00 | 11 | 1012.9 |
| 20260510090545 | 27 | 287 | 19.3 | 33.8 | 0.00 | 0.00 | 0.00 | 11 | 1012.8 |
| 20260510090307 | 27 | 285 | 19.3 | 35.4 | 0.00 | 0.00 | 0.00 | 11 | 1012.8 |
| 20260510085546 | 27 | 304 | 19.3 | 35.4 | 0.00 | 0.00 | 0.00 | 11 | 1012.9 |
| 20260510085045 | 27 | 284 | 19.3 | 35.4 | 0.00 | 0.00 | 0.00 | 11 | 1012.9 |
| 20260510084545 | 27 | 306 | 19.3 | 30.6 | 0.00 | 0.00 | 0.00 | 11 | 1013.1 |
| 20260510084045 | 27 | 281 | 17.7 | 37.0 | 0.00 | 0.00 | 0.00 | 11 | 1012.9 |
| 20260510083545 | 28 | 299 | 17.7 | 37.0 | 0.00 | 0.00 | 0.00 | 11 | 1012.9 |
| 20260510083309 | 28 | 317 | 19.3 | 33.8 | 0.00 | 0.00 | 0.00 | 11 | 1012.8 |
| 20260510082545 | 28 | 320 | 20.9 | 33.8 | 0.00 | 0.00 | 0.00 | 11 | 1012.9 |
| 20260510082044 | 27 | 288 | 19.3 | 33.8 | 0.00 | 0.00 | 0.00 | 11 | 1012.9 |
| 20260510081809 | 27 | 308 | 16.1 | 33.8 | 0.00 | 0.00 | 0.00 | 11 | 1013.1 |
| 20260510081041 | 26 | 314 | 14.5 | 25.7 | 0.00 | 0.00 | 0.00 | 11 | 1013.1 |
| 20260510080539 | 26 | 325 | 14.5 | 24.1 | 0.00 | 0.00 | 0.00 | 11 | 1013.1 |
| 20260510080039 | 26 | 289 | 14.5 | 25.7 | 0.00 | 0.00 | 0.00 | 11 | 1012.9 |
| 20260510075758 | 26 | 277 | 16.1 | 29.0 | 0.00 | 0.00 | 0.00 | 11 | 1013.1 |
| 20260510075037 | 27 | 266 | 14.5 | 29.0 | 0.00 | 0.00 | 0.00 | 11 | 1013.2 |
| 20260510074537 | 27 | 284 | 12.9 | 24.1 | 0.00 | 0.00 | 0.00 | 11 | 1013.2 |
| 20260510074037 | 27 | 281 | 14.5 | 24.1 | 0.00 | 0.00 | 0.00 | 11 | 1013.2 |
| 20260510073806 | 27 | 300 | 14.5 | 22.5 | 0.00 | 0.00 | 0.00 | 11 | 1013.2 |
| 20260510073035 | 27 | 282 | 14.5 | 29.0 | 0.00 | 0.00 | 0.00 | 10 | 1013.1 |
| 20260510072537 | 27 | 292 | 14.5 | 29.0 | 0.00 | 0.00 | 0.00 | 10 | 1013.2 |
| 20260510072033 | 27 | 317 | 14.5 | 29.0 | 0.00 | 0.00 | 0.00 | 10 | 1013.2 |
| 20260510072017 | 27 | 302 | 12.9 | 27.4 | 0.00 | 0.00 | 0.00 | 10 | 1013.2 |
| 20260510071732 | 27 | 269 | 14.5 | 29.0 | 0.00 | 0.00 | 0.00 | 10 | 1013.2 |
| 20260510070532 | 27 | 316 | 11.3 | 20.9 | 0.00 | 0.00 | 0.00 | 11 | 1013.2 |
| 20260510070033 | 27 | 330 | 11.3 | 19.3 | 0.00 | 0.00 | 0.00 | 10 | 1013.2 |
| 20260510070020 | 27 | 282 | 11.3 | 24.1 | 0.00 | 0.00 | 0.00 | 10 | 1013.1 |
| 20260510065516 | 27 | 295 | 12.9 | 24.1 | 0.00 | 0.00 | 0.00 | 10 | 1013.2 |
| 20260510064531 | 27 | 268 | 12.9 | 24.1 | 0.00 | 0.00 | 0.00 | 10 | 1013.2 |
| 20260510064031 | 28 | 281 | 12.9 | 24.1 | 0.00 | 0.00 | 0.00 | 10 | 1013.3 |
| 20260510063531 | 28 | 295 | 12.9 | 22.5 | 0.00 | 0.00 | 0.00 | 10 | 1013.3 |
| 20260510063511 | 28 | 282 | 14.5 | 27.4 | 0.00 | 0.00 | 0.00 | 10 | 1013.2 |
| 20260510062755 | 28 | 279 | 12.9 | 27.4 | 0.00 | 0.00 | 0.00 | 9 | 1013.3 |
| 20260510062031 | 28 | 318 | 11.3 | 27.4 | 0.00 | 0.00 | 0.00 | 10 | 1013.3 |
| 20260510061531 | 28 | 283 | 11.3 | 27.4 | 0.00 | 0.00 | 0.00 | 10 | 1013.3 |
| 20260510061030 | 28 | 305 | 9.7 | 19.3 | 0.00 | 0.00 | 0.00 | 10 | 1013.3 |
| 20260510060531 | 28 | 280 | 11.3 | 20.9 | 0.00 | 0.00 | 0.00 | 9 | 1013.2 |
| 20260510060030 | 28 | 296 | 11.3 | 24.1 | 0.00 | 0.00 | 0.00 | 9 | 1013.1 |
| 20260510055756 | 28 | 285 | 11.3 | 19.3 | 0.00 | 0.00 | 0.00 | 9 | 1013.1 |
| 20260510055031 | 28 | 284 | 12.9 | 20.9 | 0.00 | 0.00 | 0.00 | 9 | 1012.9 |
| 20260510054533 | 28 | 279 | 11.3 | 20.9 | 0.00 | 0.00 | 0.00 | 9 | 1012.9 |
| 20260510054030 | 28 | 287 | 9.7 | 19.3 | 0.00 | 0.00 | 0.00 | 9 | 1013.1 |
| 20260510053531 | 28 | 277 | 8.0 | 19.3 | 0.00 | 0.00 | 0.00 | 9 | 1012.9 |
| 20260510053031 | 28 | 300 | 9.7 | 19.3 | 0.00 | 0.00 | 0.00 | 9 | 1013.1 |
| 20260510052531 | 28 | 299 | 9.7 | 19.3 | 0.00 | 0.00 | 0.00 | 9 | 1012.9 |
| 20260510052251 | 28 | 308 | 9.7 | 19.3 | 0.00 | 0.00 | 0.00 | 9 | 1012.9 |
| 20260510051530 | 28 | 304 | 9.7 | 19.3 | 0.00 | 0.00 | 0.00 | 9 | 1012.9 |
| 20260510051031 | 28 | 285 | 8.0 | 17.7 | 0.00 | 0.00 | 0.00 | 9 | 1012.9 |
| 20260510050755 | 28 | 319 | 8.0 | 16.1 | 0.00 | 0.00 | 0.00 | 9 | 1012.9 |
| 20260510050030 | 28 | 292 | 8.0 | 16.1 | 0.00 | 0.00 | 0.00 | 9 | 1013.1 |
| 20260510045531 | 28 | 286 | 8.0 | 17.7 | 0.00 | 0.00 | 0.00 | 9 | 1013.1 |
| 20260510045031 | 28 | 291 | 9.7 | 19.3 | 0.00 | 0.00 | 0.00 | 8 | 1013.1 |
| 20260510044531 | 28 | 292 | 11.3 | 19.3 | 0.00 | 0.00 | 0.00 | 8 | 1013.1 |
| 20260510044515 | 29 | 281 | 11.3 | 19.3 | 0.00 | 0.00 | 0.00 | 8 | 1013.1 |
| 20260510043530 | 29 | 279 | 11.3 | 22.5 | 0.00 | 0.00 | 0.00 | 8 | 1013.1 |
| 20260510043254 | 29 | 305 | 12.9 | 22.5 | 0.00 | 0.00 | 0.00 | 8 | 1013.1 |
| 20260510042531 | 29 | 301 | 12.9 | 20.9 | 0.00 | 0.00 | 0.00 | 8 | 1013.2 |
| 20260510042031 | 30 | 277 | 12.9 | 24.1 | 0.00 | 0.00 | 0.00 | 7 | 1013.1 |
| 20260510041531 | 30 | 280 | 12.9 | 24.1 | 0.00 | 0.00 | 0.00 | 7 | 1013.1 |
| 20260510041030 | 30 | 289 | 14.5 | 32.2 | 0.00 | 0.00 | 0.00 | 7 | 1012.9 |
| 20260510040757 | 30 | 279 | 16.1 | 32.2 | 0.00 | 0.00 | 0.00 | 7 | 1012.9 |
| 20260510040021 | 30 | 267 | 14.5 | 27.4 | 0.00 | 0.00 | 0.00 | 7 | 1012.8 |
| 20260510035514 | 30 | 302 | 12.9 | 25.7 | 0.00 | 0.00 | 0.00 | 7 | 1012.7 |
| 20260510035013 | 30 | 323 | 14.5 | 30.6 | 0.00 | 0.00 | 0.00 | 7 | 1012.7 |
| 20260510034734 | 30 | 297 | 16.1 | 30.6 | 0.00 | 0.00 | 0.00 | 7 | 1012.7 |
| 20260510034011 | 30 | 277 | 14.5 | 29.0 | 0.00 | 0.00 | 0.00 | 7 | 1012.7 |
| 20260510033731 | 30 | 271 | 12.9 | 25.7 | 0.00 | 0.00 | 0.00 | 7 | 1012.7 |
| 20260510033010 | 30 | 284 | 12.9 | 24.1 | 0.00 | 0.00 | 0.00 | 7 | 1012.7 |
| 20260510032735 | 30 | 283 | 11.3 | 22.5 | 0.00 | 0.00 | 0.00 | 8 | 1012.6 |
| 20260510032011 | 30 | 319 | 11.3 | 24.1 | 0.00 | 0.00 | 0.00 | 8 | 1012.6 |
| 20260510031511 | 30 | 275 | 12.9 | 24.1 | 0.00 | 0.00 | 0.00 | 8 | 1012.6 |
| 20260510031011 | 30 | 268 | 12.9 | 22.5 | 0.00 | 0.00 | 0.00 | 8 | 1012.6 |
| 20260510030511 | 30 | 254 | 12.9 | 22.5 | 0.00 | 0.00 | 0.00 | 8 | 1012.6 |
| 20260510030010 | 31 | 250 | 12.9 | 25.7 | 0.00 | 0.00 | 0.00 | 7 | 1012.5 |
| 20260510025510 | 31 | 250 | 11.3 | 25.7 | 0.00 | 0.00 | 0.00 | 7 | 1012.4 |
| 20260510025011 | 30 | 264 | 9.7 | 24.1 | 0.00 | 0.00 | 0.00 | 8 | 1012.2 |
| 20260510024510 | 31 | 275 | 12.9 | 27.4 | 0.00 | 0.00 | 0.00 | 8 | 1012.2 |
| 20260510024010 | 31 | 207 | 11.3 | 27.4 | 0.00 | 0.00 | 0.00 | 8 | 1012.0 |
| 20260510023510 | 30 | 238 | 8.0 | 16.1 | 0.00 | 0.00 | 0.00 | 8 | 1012.0 |
| 20260510023010 | 30 | 284 | 6.4 | 14.5 | 0.00 | 0.00 | 0.00 | 8 | 1011.9 |
| 20260510022507 | 30 | 232 | 4.8 | 12.9 | 0.00 | 0.00 | 0.00 | 8 | 1011.9 |
| 20260510022006 | 30 | 229 | 4.8 | 12.9 | 0.00 | 0.00 | 0.00 | 8 | 1011.7 |
| 20260510021507 | 30 | 253 | 4.8 | 11.3 | 0.00 | 0.00 | 0.00 | 9 | 1011.7 |
| 20260510021007 | 30 | 242 | 4.8 | 11.3 | 0.00 | 0.00 | 0.00 | 9 | 1011.6 |
| 20260510020505 | 31 | 231 | 4.8 | 11.3 | 0.00 | 0.00 | 0.00 | 9 | 1011.7 |
| 20260510020449 | 31 | 222 | 4.8 | 9.7 | 0.00 | 0.00 | 0.00 | 8 | 1011.7 |
| 20260510015502 | 31 | 223 | 6.4 | 12.9 | 0.00 | 0.00 | 0.00 | 8 | 1011.6 |
| 20260510015224 | 31 | 243 | 6.4 | 12.9 | 0.00 | 0.00 | 0.00 | 8 | 1011.6 |
| 20260510014502 | 31 | 250 | 6.4 | 11.3 | 0.00 | 0.00 | 0.00 | 8 | 1011.5 |
| 20260510014004 | 31 | 220 | 6.4 | 12.9 | 0.00 | 0.00 | 0.00 | 8 | 1011.5 |
| 20260510013503 | 31 | 218 | 6.4 | 12.9 | 0.00 | 0.00 | 0.00 | 7 | 1011.4 |
| 20260510013006 | 31 | 233 | 6.4 | 12.9 | 0.00 | 0.00 | 0.00 | 7 | 1011.3 |
| 20260510012459 | 32 | 268 | 4.8 | 12.9 | 0.00 | 0.00 | 0.00 | 7 | 1011.4 |
| 20260510011958 | 32 | 284 | 1.6 | 12.9 | 0.00 | 0.00 | 0.00 | 7 | 1011.3 |
| 20260510011458 | 32 | 246 | 1.6 | 9.7 | 0.00 | 0.00 | 0.00 | 6 | 1011.3 |
| 20260510010958 | 32 | 161 | 3.2 | 11.3 | 0.00 | 0.00 | 0.00 | 6 | 1011.4 |
| 20260510010458 | 32 | 144 | 3.2 | 11.3 | 0.00 | 0.00 | 0.00 | 6 | 1011.3 |
| 20260510010000 | 32 | 231 | 4.8 | 9.7 | 0.00 | 0.00 | 0.00 | 6 | 1011.3 |
| 20260510005458 | 32 | 242 | 9.7 | 17.7 | 0.00 | 0.00 | 0.00 | 6 | 1011.4 |
| 20260510004958 | 32 | 204 | 11.3 | 22.5 | 0.00 | 0.00 | 0.00 | 6 | 1011.4 |
| 20260510004945 | 32 | 221 | 11.3 | 22.5 | 0.00 | 0.00 | 0.00 | 6 | 1011.4 |
| 20260510003955 | 32 | 177 | 9.7 | 19.3 | 0.00 | 0.00 | 0.00 | 6 | 1011.4 |
| 20260510003455 | 33 | 244 | 8.0 | 19.3 | 0.00 | 0.00 | 0.00 | 6 | 1011.4 |
| 20260510002954 | 33 | 232 | 8.0 | 14.5 | 0.00 | 0.00 | 0.00 | 6 | 1011.4 |
| 20260510002454 | 33 | 329 | 8.0 | 16.1 | 0.00 | 0.00 | 0.00 | 6 | 1011.5 |
| 20260510001953 | 33 | 293 | 8.0 | 20.9 | 0.00 | 0.00 | 0.00 | 6 | 1011.5 |
| 20260510001453 | 33 | 296 | 11.3 | 20.9 | 0.00 | 0.00 | 0.00 | 6 | 1011.5 |
| 20260510000958 | 33 | 200 | 11.3 | 19.3 | 0.00 | 0.00 | 0.00 | 6 | 1011.4 |
| 20260510000455 | 33 | 221 | 9.7 | 19.3 | 0.00 | 0.00 | 0.00 | 6 | 1011.6 |
| 20260509235955 | 33 | 237 | 9.7 | 19.3 | 0.00 | 0.00 | 0.00 | 6 | 1011.6 |
| 20260509235447 | 33 | 225 | 12.9 | 24.1 | 0.00 | 0.00 | 0.00 | 6 | 1011.7 |
| 20260509234942 | 33 | 229 | 9.7 | 24.1 | 0.00 | 0.00 | 0.00 | 6 | 1011.6 |
| 20260509234436 | 33 | 327 | 6.4 | 17.7 | 0.00 | 0.00 | 0.00 | 6 | 1011.6 |
| 20260509233936 | 33 | 268 | 9.7 | 20.9 | 0.00 | 0.00 | 0.00 | 6 | 1011.8 |
| 20260509233436 | 33 | 219 | 8.0 | 20.9 | 0.00 | 0.00 | 0.00 | 6 | 1011.7 |
| 20260509232936 | 33 | 158 | 6.4 | 16.1 | 0.00 | 0.00 | 0.00 | 6 | 1011.8 |
| 20260509232434 | 33 | 290 | 6.4 | 16.1 | 0.00 | 0.00 | 0.00 | 6 | 1011.8 |
| 20260509231932 | 33 | 163 | 9.7 | 24.1 | 0.00 | 0.00 | 0.00 | 6 | 1011.9 |
| 20260509231432 | 33 | 205 | 12.9 | 24.1 | 0.00 | 0.00 | 0.00 | 6 | 1011.9 |
| 20260509230932 | 33 | 310 | 11.3 | 24.1 | 0.00 | 0.00 | 0.00 | 6 | 1011.9 |
| 20260509230431 | 33 | 16 | 11.3 | 22.5 | 0.00 | 0.00 | 0.00 | 6 | 1011.9 |
| 20260509225932 | 33 | 212 | 11.3 | 22.5 | 0.00 | 0.00 | 0.00 | 6 | 1012.0 |
| 20260509225432 | 33 | 318 | 11.3 | 20.9 | 0.00 | 0.00 | 0.00 | 6 | 1012.0 |
| 20260509225411 | 33 | 293 | 14.5 | 27.4 | 0.00 | 0.00 | 0.00 | 6 | 1012.0 |
| 20260509224432 | 33 | 311 | 12.9 | 27.4 | 0.00 | 0.00 | 0.00 | 6 | 1012.0 |
| 20260509223932 | 33 | 244 | 6.4 | 25.7 | 0.00 | 0.00 | 0.00 | 6 | 1012.0 |
| 20260509223655 | 33 | 320 | 4.8 | 11.3 | 0.00 | 0.00 | 0.00 | 6 | 1012.2 |
| 20260509222931 | 33 | 5 | 4.8 | 19.3 | 0.00 | 0.00 | 0.00 | 6 | 1012.2 |
| 20260509222425 | 33 | 234 | 3.2 | 19.3 | 0.00 | 0.00 | 0.00 | 6 | 1012.4 |
| 20260509222143 | 33 | 65 | 4.8 | 14.5 | 0.00 | 0.00 | 0.00 | 7 | 1012.4 |
| 20260509221413 | 33 | 277 | 4.8 | 14.5 | 0.00 | 0.00 | 0.00 | 6 | 1012.4 |
| 20260509220908 | 33 | 277 | 6.4 | 17.7 | 0.00 | 0.00 | 0.00 | 6 | 1012.5 |
| 20260509220403 | 33 | 229 | 11.3 | 24.1 | 0.00 | 0.00 | 0.00 | 6 | 1012.6 |
| 20260509215904 | 33 | 328 | 12.9 | 25.7 | 0.00 | 0.00 | 0.00 | 7 | 1012.7 |
| 20260509215404 | 33 | 258 | 9.7 | 25.7 | 0.00 | 0.00 | 0.00 | 7 | 1012.6 |
| 20260509214903 | 33 | 302 | 9.7 | 19.3 | 0.00 | 0.00 | 0.00 | 7 | 1012.6 |
| 20260509214403 | 33 | 5 | 11.3 | 24.1 | 0.00 | 0.00 | 0.00 | 6 | 1012.8 |
| 20260509214123 | 33 | 307 | 9.7 | 24.1 | 0.00 | 0.00 | 0.00 | 6 | 1012.9 |
| 20260509213405 | 33 | 200 | 8.0 | 20.9 | 0.00 | 0.00 | 0.00 | 6 | 1013.2 |
| 20260509212904 | 33 | 147 | 9.7 | 24.1 | 0.00 | 0.00 | 0.00 | 6 | 1013.3 |
| 20260509212404 | 33 | 281 | 16.1 | 25.7 | 0.00 | 0.00 | 0.00 | 6 | 1013.4 |
| 20260509211903 | 33 | 234 | 14.5 | 27.4 | 0.00 | 0.00 | 0.00 | 6 | 1013.4 |
| 20260509211403 | 33 | 254 | 12.9 | 27.4 | 0.00 | 0.00 | 0.00 | 7 | 1013.5 |
| 20260509210904 | 33 | 319 | 12.9 | 22.5 | 0.00 | 0.00 | 0.00 | 6 | 1013.5 |
| 20260509210627 | 32 | 242 | 11.3 | 22.5 | 0.00 | 0.00 | 0.00 | 7 | 1013.6 |
| 20260509205903 | 32 | 200 | 9.7 | 20.9 | 0.00 | 0.00 | 0.00 | 7 | 1013.7 |
| 20260509205403 | 32 | 184 | 8.0 | 16.1 | 0.00 | 0.00 | 0.00 | 7 | 1013.7 |
| 20260509204903 | 33 | 197 | 9.7 | 20.9 | 0.00 | 0.00 | 0.00 | 7 | 1013.7 |